sat.trackr.live / text

‹ back to catalog

STARLINK-4487

NORAD 53531 · 2022-101E

PAYLOAD ACTIVE UNKNOWN

§ Identity

Operator
Country
US
Launch date
2022-08-19
Launch site
AFETR
Launch vehicle
Mass (kg)
RCS (m²)

Purposes: comms

External: N2YO · Heavens-Above · Gunter

§ Orbital elements

Epoch: 2026-05-25T03:26:23.457120Z

Period
95.44 min
Inclination
53.2124°
Eccentricity
0.0001545
Mean motion
15.08822095 rev/d
Perigee alt
538.7 km
Apogee alt
540.9 km
Semi-major
6,917.9 km
B*
-7.3923e-5
RAAN
90.9067°
Arg perigee
81.1835°
Mean anomaly
278.9332°
Rev number
20,770

§ Raw data

STARLINK-44871 53531U 22101E   26145.14332705 -.00001464  00000+0 -73923-4 0  99902 53531  53.2124  90.9067 0001545  81.1835 278.9332 15.08822095207708

JSON: /api/v1/satellites/53531 · /tle

For live sub-satellite position, see the globe view (requires WebGL).

§ Visibility from observer

Set your observer location to see the next 7 days of passes ≥ 10°. The values pass through the URL so the page stays shareable.

No JS? Fill the form by hand. The geolocation button needs JavaScript.